Fort Rucker, AL

8:02 PM CDT on September 29, 2016 (GMT -0500)
Fort Rucker / Ozark

Weather History for KLOR - November, 2012

Change the Weather History Date:

Wednesday, November 14, 2012

  Actual Average (KDHN) Record (KDHN)
Temperature  
Mean Temperature 50 °F 59 °F  
Max Temperature 57 °F 72 °F 84 °F (1955)
Min Temperature 42 °F 47 °F 30 °F (1963)
Degree Days  
Heating Degree Days 16 7  
Month to date heating degree days 76  
Since 1 July heating degree days 135  
Moisture  
Dew Point 47 °F    
Average Humidity 84    
Maximum Humidity 94    
Minimum Humidity 65    
Precipitation  
Precipitation 0.00 in 0.14 in 1.94 in (1957)
Month to date precipitation 1.52  
Year to date precipitation 46.91  
Sea Level Pressure  
Sea Level Pressure 30.23 in    
Wind  
Wind Speed 4 mph (NE)    
Max Wind Speed 8 mph    
Max Gust Speed -    
Visibility 7 miles    
Events Rain    
T = Trace of Precipitation, MM = Missing Value Source: NWS Daily Summary

Daily Weather History Graph

Daily Weather History Graph

Search for Another Location

Airport or City:

Trip Planner

Search our weather history database for the weather conditions in past years. The results will help you decide how hot, cold, wet, or windy it might be!

Date:

Astronomy

Nov. 14, 2012 Rise Set
Actual Time 6:10 AM CST 4:44 PM CST
Civil Twilight 5:44 AM CST 5:10 PM CST
Nautical Twilight 5:15 AM CST 5:39 PM CST
Astronomical Twilight 4:46 AM CST 6:08 PM CST
Moon 6:55 AM CST (11/14) 5:36 PM CST (11/14)
Length of Visible Light 11h 25m
Length of Day
10h 34m
New Moon, 1% of the Moon is Illuminated
Nov 14
New Moon
Nov 20
First Quarter
Nov 28
Full
Dec 6
Last Quarter
Dec 13
New

Hourly Weather History & Observations

Time (CST) Temp. Windchill Dew Point Humidity Pressure Visibility Wind Dir Wind Speed Gust Speed Precip Events Conditions
12:53 AM 43.0 °F 40.3 °F 32.0 °F 65% 30.22 in 10.0 mi NNE 4.6 mph - N/A   Clear
1:53 AM 42.1 °F - 34.0 °F 73% 30.22 in 10.0 mi Calm Calm - N/A   Partly Cloudy
2:53 AM 44.1 °F - 36.0 °F 73% 30.22 in 10.0 mi Calm Calm - N/A   Overcast
3:40 AM 42.8 °F 41.1 °F 35.6 °F 76% 30.22 in 10.0 mi NNE 3.5 mph - N/A   Mostly Cloudy
3:53 AM 44.1 °F 42.5 °F 36.0 °F 73% 30.22 in 10.0 mi NNE 3.5 mph - N/A   Mostly Cloudy
4:29 AM 44.6 °F - 37.4 °F 76% 30.23 in 10.0 mi Calm Calm - N/A   Overcast
4:53 AM 45.0 °F 43.5 °F 37.0 °F 74% 30.23 in 10.0 mi NNE 3.5 mph - N/A   Overcast
5:53 AM 46.0 °F 43.9 °F 39.9 °F 79% 30.24 in 10.0 mi NNE 4.6 mph - N/A   Overcast
6:53 AM 48.9 °F - 44.1 °F 83% 30.25 in 10.0 mi NE 4.6 mph - N/A   Overcast
7:53 AM 53.1 °F - 46.0 °F 77% 30.26 in 10.0 mi ENE 6.9 mph - N/A   Overcast
8:53 AM 54.0 °F - 46.9 °F 77% 30.26 in 10.0 mi ENE 5.8 mph - N/A   Overcast
9:34 AM 55.4 °F - 48.2 °F 77% 30.26 in 10.0 mi NE 6.9 mph - N/A   Overcast
9:53 AM 57.0 °F - 48.0 °F 72% 30.25 in 10.0 mi ENE 8.1 mph - N/A   Overcast
10:53 AM 57.9 °F - 48.9 °F 72% 30.25 in 10.0 mi NE 3.5 mph - N/A   Overcast
11:53 AM 57.9 °F - 50.0 °F 75% 30.23 in 10.0 mi NE 4.6 mph - N/A   Overcast
12:53 PM 57.0 °F - 52.0 °F 83% 30.21 in 10.0 mi NNE 4.6 mph - 0.00 in   Overcast
1:53 PM 57.0 °F - 52.0 °F 83% 30.20 in 10.0 mi Variable 3.5 mph - N/A   Overcast
2:02 PM 57.2 °F - 51.8 °F 82% 30.20 in 10.0 mi North 3.5 mph - N/A   Overcast
2:53 PM 55.9 °F - 52.0 °F 87% 30.21 in 7.0 mi North 5.8 mph - 0.00 in Rain Light Rain
3:22 PM 55.4 °F - 51.8 °F 88% 30.21 in 2.5 mi NNE 4.6 mph - 0.00 in   Overcast
3:36 PM 55.4 °F - 53.6 °F 94% 30.20 in 1.8 mi NNE 4.6 mph - 0.00 in   Overcast
3:53 PM 55.0 °F - 53.1 °F 93% 30.21 in 2.0 mi NNE 3.5 mph - 0.00 in   Overcast
4:09 PM 55.4 °F - 53.6 °F 94% 30.21 in 1.8 mi Calm Calm - N/A   Overcast
4:16 PM 55.4 °F - 53.6 °F 94% 30.21 in 2.5 mi Variable 3.5 mph - N/A   Overcast
4:24 PM 55.4 °F - 53.6 °F 94% 30.21 in 3.0 mi Calm Calm - N/A   Overcast
4:53 PM 54.0 °F - 52.0 °F 93% 30.21 in 6.0 mi NNE 5.8 mph - N/A   Overcast
5:53 PM 54.0 °F - 51.1 °F 90% 30.22 in 4.0 mi NE 4.6 mph - N/A   Overcast
6:22 PM 53.6 °F - 51.8 °F 94% 30.24 in 2.5 mi North 5.8 mph - N/A   Overcast
6:53 PM 53.1 °F - 51.1 °F 93% 30.23 in 2.5 mi Variable 4.6 mph - N/A   Overcast
7:02 PM 53.6 °F - 51.8 °F 94% 30.24 in 3.0 mi NE 4.6 mph - N/A   Overcast
7:53 PM 53.1 °F - 50.0 °F 89% 30.24 in 4.0 mi NE 4.6 mph - N/A   Overcast
8:53 PM 52.0 °F - 48.9 °F 89% 30.25 in 8.0 mi NE 5.8 mph - N/A   Overcast
9:53 PM 52.0 °F - 48.9 °F 89% 30.24 in 9.0 mi NE 3.5 mph - N/A   Overcast
10:53 PM 51.1 °F - 48.0 °F 89% 30.22 in 8.0 mi NE 6.9 mph - N/A   Overcast
11:53 PM 51.1 °F - 48.0 °F 89% 30.21 in 8.0 mi NE 3.5 mph - N/A   Overcast